User: anonymous   Login
Location: Fort Wayne
(41.1310°N, 85.1290°W)
Time: 15:23:33
(UTC-05:00)
Language:

BREEZE-M DEB (TANK) - Orbit

View from above orbital plane
View from above orbital plane
View from above satellite
View from above satellite

Ground track
Ground track

The orbit data is extracted from the following two-line orbital elements,

1 27821U 03024B   15028.75154984  .00005576  00000-0  68202-3 0  5673
2 27821 049.5855 328.6520 4996620 092.4847 330.5939 05.65068505230708
Epoch (UTC): 28 January 2015 18:02:13
Eccentricity: 0.4996620
inclination: 49.5855°
perigee height: 284 km
apogee height: 13589 km
right ascension of ascending node: 328.6520°
argument of perigee: 92.4847°
revolutions per day: 5.65068505
mean anomaly at epoch: 330.5939°
orbit number at epoch: 23070

The dashed part of the orbit path shows where the satellite is in the earth's shadow,  

DLR